| time (UTC) | temp F | wind direction | speed knots | gust knots | rain 1hr in | rain 24hr in | rain mn in | humidity % | barometer mb |
| 20260506185151 | 55 | 247 | 5.2 | 7.0 | 0.00 | 0.00 | 0.00 | 39 | 993.6 |
| 20260506183649 | 53 | 280 | 7.0 | 7.8 | 0.00 | 0.00 | 0.00 | 39 | 993.4 |
| 20260506182145 | 52 | 281 | 3.5 | 7.0 | 0.00 | 0.00 | 0.00 | 41 | 993.2 |
| 20260506180643 | 52 | 1 | 2.6 | 7.0 | 0.00 | 0.00 | 0.00 | 42 | 993.6 |
| 20260506175138 | 52 | 289 | 5.2 | 7.0 | 0.00 | 0.00 | 0.00 | 41 | 993.3 |
| 20260506173637 | 52 | 257 | 5.2 | 7.8 | 0.00 | 0.00 | 0.00 | 40 | 993.4 |
| 20260506172132 | 52 | 195 | 1.7 | 6.1 | 0.00 | 0.00 | 0.00 | 44 | 993.6 |
| 20260506170631 | 52 | 278 | 8.7 | 11.3 | 0.00 | 0.00 | 0.00 | 42 | 993.4 |
| 20260506165127 | 52 | 242 | 3.5 | 12.2 | 0.00 | 0.00 | 0.00 | 46 | 993.7 |
| 20260506163623 | 53 | 232 | 6.1 | 8.7 | 0.00 | 0.00 | 0.00 | 42 | 993.4 |
| 20260506162122 | 53 | 259 | 8.7 | 11.3 | 0.00 | 0.00 | 0.00 | 40 | 993.4 |
| 20260506160619 | 53 | 279 | 6.1 | 7.8 | 0.00 | 0.00 | 0.00 | 39 | 993.2 |
| 20260506155116 | 52 | 278 | 3.5 | 6.1 | 0.00 | 0.00 | 0.00 | 42 | 993.4 |
| 20260506152559 | 51 | 284 | 4.3 | 5.2 | 0.00 | 0.00 | 0.00 | 45 | 993.6 |
| 20260506151057 | 50 | 229 | 2.6 | 5.2 | 0.00 | 0.00 | 0.00 | 46 | 993.5 |
| 20260506145553 | 50 | 246 | 2.6 | 6.1 | 0.00 | 0.00 | 0.00 | 43 | 993.6 |
| 20260506144050 | 50 | 347 | 0.0 | 0.9 | 0.00 | 0.00 | 0.00 | 47 | 993.3 |
| 20260506142549 | 50 | 213 | 0.9 | 2.6 | 0.00 | 0.00 | 0.00 | 46 | 993.1 |
| 20260506141049 | 49 | 1 | 1.7 | 2.6 | 0.00 | 0.00 | 0.00 | 53 | 993.1 |
| 20260506135546 | 48 | 76 | 1.7 | 2.6 | 0.00 | 0.00 | 0.00 | 53 | 993.0 |
| 20260506134046 | 48 | 238 | 0.9 | 3.5 | 0.00 | 0.00 | 0.00 | 60 | 993.0 |
| 20260506132544 | 48 | 42 | 1.7 | 2.6 | 0.00 | 0.00 | 0.00 | 59 | 992.7 |
| 20260506131040 | 47 | 139 | 2.6 | 3.5 | 0.00 | 0.00 | 0.00 | 64 | 992.3 |
| 20260506125539 | 45 | 152 | 0.9 | 2.6 | 0.00 | 0.00 | 0.00 | 67 | 992.6 |
| 20260506124037 | 44 | 52 | 1.7 | 1.7 | 0.00 | 0.00 | 0.00 | 70 | 992.7 |
| 20260506122535 | 42 | 16 | 1.7 | 5.2 | 0.00 | 0.00 | 0.00 | 72 | 992.3 |
| 20260506121032 | 41 | 37 | 1.7 | 5.2 | 0.00 | 0.00 | 0.00 | 74 | 992.4 |
| 20260506115531 | 41 | 7 | 2.6 | 2.6 | 0.00 | 0.00 | 0.00 | 75 | 992.4 |
| 20260506114031 | 40 | 1 | 0.9 | 1.7 | 0.00 | 0.00 | 0.00 | 75 | 991.9 |
| 20260506112528 | 38 | 124 | 0.0 | 0.9 | 0.00 | 0.00 | 0.00 | 82 | 991.5 |
| 20260506111026 | 36 | 207 | 0.0 | 0.0 | 0.00 | 0.00 | 0.00 | 88 | 991.3 |
| 20260506105522 | 35 | 207 | 0.0 | 0.0 | 0.00 | 0.00 | 0.00 | 89 | 991.0 |
| 20260506104021 | 35 | 207 | 0.0 | 0.0 | 0.00 | 0.00 | 0.00 | 87 | 991.1 |
| 20260506102519 | 36 | 209 | 0.0 | 0.0 | 0.00 | 0.00 | 0.00 | 83 | 991.1 |
| 20260506101016 | 38 | 229 | 0.9 | 0.9 | 0.00 | 0.00 | 0.00 | 81 | 991.4 |
| 20260506095517 | 38 | 265 | 0.9 | 1.7 | 0.00 | 0.00 | 0.00 | 80 | 991.0 |
| 20260506094014 | 39 | 278 | 1.7 | 2.6 | 0.00 | 0.00 | 0.00 | 80 | 991.0 |
| 20260506092513 | 39 | 230 | 0.9 | 1.7 | 0.00 | 0.00 | 0.00 | 81 | 990.9 |
| 20260506091010 | 39 | 236 | 1.7 | 1.7 | 0.00 | 0.00 | 0.00 | 81 | 990.5 |
| 20260506085507 | 39 | 231 | 0.9 | 1.7 | 0.00 | 0.00 | 0.00 | 82 | 990.3 |
| 20260506084008 | 39 | 227 | 0.9 | 0.9 | 0.00 | 0.00 | 0.00 | 85 | 990.4 |
| 20260506082505 | 39 | 211 | 0.0 | 1.7 | 0.00 | 0.00 | 0.00 | 85 | 990.5 |
| 20260506081002 | 39 | 217 | 0.0 | 1.7 | 0.00 | 0.00 | 0.00 | 86 | 990.4 |
| 20260506072454 | 40 | 212 | 0.0 | 1.7 | 0.00 | 0.00 | 0.00 | 83 | 990.5 |
| 20260506070952 | 40 | 251 | 0.9 | 1.7 | 0.00 | 0.00 | 0.00 | 84 | 990.6 |
| 20260506062445 | 41 | 274 | 2.6 | 2.6 | 0.00 | 0.00 | 0.00 | 80 | 990.7 |
| 20260506060941 | 41 | 243 | 0.9 | 1.7 | 0.00 | 0.00 | 0.00 | 79 | 990.7 |
| 20260506050925 | 42 | 285 | 1.7 | 3.5 | 0.00 | 0.00 | 0.00 | 75 | 991.0 |
| 20260506043920 | 43 | 276 | 1.7 | 3.5 | 0.00 | 0.00 | 0.00 | 75 | 990.7 |
| 20260506042420 | 43 | 287 | 2.6 | 3.5 | 0.00 | 0.00 | 0.00 | 75 | 990.0 |
| 20260506040917 | 43 | 215 | 0.9 | 1.7 | 0.00 | 0.00 | 0.00 | 76 | 990.1 |
| 20260506035414 | 44 | 291 | 0.9 | 3.5 | 0.00 | 0.01 | 0.01 | 74 | 990.1 |
| 20260506033910 | 44 | 263 | 1.7 | 2.6 | 0.00 | 0.01 | 0.01 | 72 | 990.0 |
| 20260506032407 | 44 | 212 | 0.0 | 0.9 | 0.00 | 0.01 | 0.01 | 71 | 989.7 |
| 20260506030904 | 44 | 259 | 0.9 | 1.7 | 0.00 | 0.01 | 0.01 | 68 | 989.9 |
| 20260506025402 | 44 | 238 | 1.7 | 1.7 | 0.00 | 0.01 | 0.01 | 67 | 990.2 |
| 20260506023857 | 44 | 205 | 0.0 | 0.9 | 0.00 | 0.01 | 0.01 | 68 | 989.6 |
| 20260506022354 | 45 | 226 | 0.9 | 0.9 | 0.00 | 0.01 | 0.01 | 67 | 989.7 |
| 20260506020852 | 46 | 218 | 0.9 | 0.9 | 0.00 | 0.01 | 0.01 | 61 | 989.3 |
| 20260506015350 | 45 | 208 | 0.0 | 0.0 | 0.00 | 0.01 | 0.01 | 63 | 989.3 |
| 20260506013846 | 44 | 208 | 0.9 | 0.9 | 0.00 | 0.01 | 0.01 | 65 | 989.1 |
| 20260506012343 | 44 | 194 | 0.0 | 0.0 | 0.00 | 0.01 | 0.01 | 67 | 988.9 |
| 20260506010840 | 45 | 183 | 0.0 | 0.0 | 0.00 | 0.01 | 0.01 | 66 | 988.7 |
| 20260506005337 | 47 | 184 | 0.0 | 0.0 | 0.00 | 0.01 | 0.01 | 59 | 988.7 |
| 20260506003832 | 48 | 202 | 0.0 | 0.0 | 0.00 | 0.01 | 0.01 | 52 | 988.5 |
| 20260506002328 | 49 | 202 | 0.0 | 0.9 | 0.00 | 0.01 | 0.01 | 49 | 988.6 |
| 20260506000823 | 50 | 282 | 1.7 | 3.5 | 0.00 | 0.01 | 0.01 | 48 | 988.6 |
| 20260505235321 | 50 | 210 | 3.5 | 3.5 | 0.00 | 0.01 | 0.01 | 46 | 988.5 |
| 20260505233818 | 50 | 248 | 1.7 | 2.6 | 0.00 | 0.01 | 0.01 | 47 | 988.6 |
| 20260505232317 | 50 | 284 | 2.6 | 3.5 | 0.00 | 0.01 | 0.01 | 45 | 988.6 |
| 20260505230815 | 51 | 226 | 1.7 | 3.5 | 0.00 | 0.01 | 0.01 | 45 | 988.6 |
| 20260505225312 | 51 | 281 | 1.7 | 3.5 | 0.00 | 0.01 | 0.01 | 45 | 988.6 |
| 20260505223808 | 51 | 254 | 1.7 | 5.2 | 0.00 | 0.01 | 0.01 | 45 | 988.9 |
| 20260505222309 | 51 | 258 | 3.5 | 5.2 | 0.00 | 0.01 | 0.01 | 45 | 988.7 |
| 20260505220805 | 51 | 283 | 3.5 | 7.0 | 0.00 | 0.01 | 0.01 | 45 | 988.9 |
| 20260505215305 | 51 | 270 | 3.5 | 6.1 | 0.00 | 0.01 | 0.01 | 45 | 988.5 |
| 20260505213802 | 51 | 211 | 1.7 | 5.2 | 0.00 | 0.01 | 0.01 | 45 | 988.8 |
| 20260505212259 | 51 | 187 | 1.7 | 7.8 | 0.00 | 0.01 | 0.01 | 45 | 988.7 |
| 20260505210754 | 51 | 232 | 4.3 | 7.0 | 0.00 | 0.01 | 0.01 | 45 | 988.9 |
| 20260505205253 | 52 | 265 | 5.2 | 7.8 | 0.00 | 0.01 | 0.01 | 44 | 989.0 |
| 20260505203749 | 53 | 299 | 2.6 | 6.1 | 0.00 | 0.01 | 0.01 | 44 | 988.9 |
| 20260505202244 | 53 | 281 | 3.5 | 6.1 | 0.00 | 0.01 | 0.01 | 43 | 989.0 |
| 20260505200743 | 53 | 316 | 1.7 | 7.8 | 0.00 | 0.01 | 0.01 | 45 | 989.0 |
| 20260505195238 | 52 | 227 | 5.2 | 7.8 | 0.00 | 0.01 | 0.01 | 43 | 989.2 |
| 20260505193733 | 52 | 257 | 4.3 | 7.8 | 0.00 | 0.01 | 0.01 | 45 | 988.9 |
| 20260505192233 | 52 | 307 | 6.1 | 7.8 | 0.00 | 0.01 | 0.01 | 43 | 989.0 |
| 20260505190731 | 54 | 261 | 6.1 | 8.7 | 0.00 | 0.01 | 0.01 | 43 | 989.0 |